Dades meteomassalio
Diari Summary for Marc 18, 2017 Units:  Metric    English   Both
« Previous Day
Next Day »
Diari Semanal Mensual Anual Personalitzat
  Maxima: Minima: Mijana:
Temperatura: -17.8 °C -16.6 °C -11.2 °C
Rosada: -17.8 °C -17.4 °C -14.7 °C
Humitat: Humidity % 39 % 68 %
Velocitat del vent: 0 km/h 0 km/h 4.8 km/h
Racha vent: 0 km/h - -
Vent:- - WNW
Pressio: 0 hPa 34486.4 hPa -
Pluja: 0 mm    
Historical Graphs
 
 
Tabular Data for Marc 18, 2017
Time Temperature Dew Point Pressure Wind Wind Speed Wind Gust Humidity Rainfall Rate (Hourly) solar Conditions
-17.8 °C -17.8 °C 0 hPa Calm     Humidity % 0 mm SolarRadiationWatts/m^2 W/m2 Conditions
00:03 -14.7 °C -16.2 °C 34635.4 hPa Calm     82 % 0 mm 0.0 W/m2 CLR
00:08 -14.7 °C -16.2 °C 34635.4 hPa Calm     83 % 0 mm 0.0 W/m2 CLR
00:13 -14.7 °C -16.2 °C 34625.2 hPa Calm     83 % 0 mm 0.0 W/m2 CLR
00:18 -14.7 °C -16.2 °C 34625.2 hPa Calm     83 % 0 mm 0.0 W/m2 CLR
00:23 -14.8 °C -16.2 °C 34625.2 hPa Calm     84 % 0 mm 0.0 W/m2 CLR
00:28 -14.6 °C -16.1 °C 34635.4 hPa Calm     83 % 0 mm 0.0 W/m2 CLR
00:33 -14.7 °C -16.3 °C 34625.2 hPa Calm     82 % 0 mm 0.0 W/m2 CLR
00:38 -14.9 °C -16.3 °C 34625.2 hPa Calm     83 % 0 mm 0.0 W/m2 CLR
00:43 -14.9 °C -16.3 °C 34625.2 hPa Calm     84 % 0 mm 0.0 W/m2 CLR
00:48 -15 °C -16.4 °C 34635.4 hPa Calm     84 % 0 mm 0.0 W/m2 CLR
00:53 -15.1 °C -16.4 °C 34635.4 hPa Calm     84 % 0 mm 0.0 W/m2 CLR
00:58 -15 °C -16.4 °C 34635.4 hPa Calm     84 % 0 mm 0.0 W/m2 CLR
01:03 -15 °C -16.4 °C 34635.4 hPa Calm     84 % 0 mm 0.0 W/m2 CLR
01:08 -15 °C -16.4 °C 34635.4 hPa Calm     84 % 0 mm 0.0 W/m2 CLR
01:13 -15 °C -16.4 °C 34635.4 hPa Calm     84 % 0 mm 0.0 W/m2 CLR
01:18 -15 °C -16.4 °C 34635.4 hPa Calm     84 % 0 mm 0.0 W/m2 CLR
01:23 -14.9 °C -16.3 °C 34635.4 hPa Calm     84 % 0 mm 0.0 W/m2 CLR
01:28 -14.8 °C -16.3 °C 34635.4 hPa Calm     82 % 0 mm 0.0 W/m2 CLR
01:33 -14.9 °C -16.4 °C 34635.4 hPa Calm     82 % 0 mm 0.0 W/m2 CLR
01:38 -15.1 °C -16.6 °C 34635.4 hPa Calm     82 % 0 mm 0.0 W/m2 CLR
01:43 -15.2 °C -16.6 °C 34635.4 hPa Calm     83 % 0 mm 0.0 W/m2 CLR
01:48 -15.2 °C -16.6 °C 34635.4 hPa Calm     84 % 0 mm 0.0 W/m2 CLR
01:53 -15.2 °C -16.6 °C 34635.4 hPa Calm     84 % 0 mm 0.0 W/m2 CLR
01:54 -15.2 °C -16.6 °C 34635.4 hPa Calm     84 % 0 mm 0.0 W/m2 CLR
01:59 -15.2 °C -16.6 °C 34635.4 hPa Calm     84 % 0 mm 0.0 W/m2 CLR
02:04 -15.3 °C -16.7 °C 34645.6 hPa Calm     84 % 0 mm 0.0 W/m2 CLR
02:09 -15.4 °C -16.7 °C 34635.4 hPa Calm     84 % 0 mm 0.0 W/m2 CLR
02:14 -15.4 °C -16.7 °C 34645.6 hPa Calm     85 % 0 mm 0.0 W/m2 CLR
02:19 -15.4 °C -16.7 °C 34645.6 hPa Calm     85 % 0 mm 0.0 W/m2 CLR
02:24 -15.6 °C -16.7 °C 34645.6 hPa Calm     86 % 0 mm 0.0 W/m2 CLR
02:29 -15.6 °C -16.8 °C 34645.6 hPa Calm     86 % 0 mm 0.0 W/m2 CLR
02:34 -15.6 °C -16.6 °C 34645.6 hPa Calm     87 % 0 mm 0.0 W/m2 CLR
02:39 -15.5 °C -16.7 °C 34645.6 hPa Calm     86 % 0 mm 0.0 W/m2 CLR
02:44 -15.6 °C -16.8 °C 34645.6 hPa Calm     86 % 0 mm 0.0 W/m2 CLR
02:49 -15.6 °C -16.8 °C 34645.6 hPa Calm     86 % 0 mm 0.0 W/m2 CLR
02:54 -15.7 °C -16.8 °C 34645.6 hPa Calm     86 % 0 mm 0.0 W/m2 CLR
02:59 -15.7 °C -16.9 °C 34645.6 hPa Calm     86 % 0 mm 0.0 W/m2 CLR
03:04 -15.8 °C -16.8 °C 34645.6 hPa Calm     87 % 0 mm 0.0 W/m2 CLR
03:09 -15.8 °C -16.9 °C 34645.6 hPa Calm     87 % 0 mm 0.0 W/m2 CLR
03:14 -15.8 °C -16.9 °C 34645.6 hPa Calm     87 % 0 mm 0.0 W/m2 CLR
03:19 -15.8 °C -16.8 °C 34645.6 hPa Calm     88 % 0 mm 0.0 W/m2 CLR
03:24 -15.9 °C -16.8 °C 34645.6 hPa Calm     88 % 0 mm 0.0 W/m2 CLR
03:29 -15.9 °C -16.8 °C 34645.6 hPa Calm     88 % 0 mm 0.0 W/m2 CLR
03:34 -15.9 °C -16.9 °C 34645.6 hPa Calm     88 % 0 mm 0.0 W/m2 CLR
03:39 -15.9 °C -16.9 °C 34645.6 hPa Calm     88 % 0 mm 0.0 W/m2 CLR
03:44 -16 °C -17 °C 34645.6 hPa Calm     88 % 0 mm 0.0 W/m2 CLR
03:49 -16 °C -17 °C 34635.4 hPa Calm     88 % 0 mm 0.0 W/m2 CLR
03:54 -16 °C -17 °C 34635.4 hPa Calm     88 % 0 mm 0.0 W/m2 CLR
03:59 -16.1 °C -17.1 °C 34635.4 hPa Calm     88 % 0 mm 0.0 W/m2 CLR
04:04 -16.2 °C -17.1 °C 34635.4 hPa Calm     88 % 0 mm 0.0 W/m2 CLR
04:09 -16.2 °C -17.2 °C 34635.4 hPa Calm     88 % 0 mm 0.0 W/m2 CLR
04:14 -16.2 °C -17.1 °C 34625.2 hPa Calm     89 % 0 mm 0.0 W/m2 CLR
04:19 -16.1 °C -17 °C 34635.4 hPa Calm     89 % 0 mm 0.0 W/m2 CLR
04:24 -16.1 °C -17 °C 34635.4 hPa Calm     89 % 0 mm 0.0 W/m2 CLR
04:29 -16.1 °C -17 °C 34635.4 hPa Calm     89 % 0 mm 0.0 W/m2 CLR
04:34 -16.2 °C -17.1 °C 34635.4 hPa Calm     89 % 0 mm 0.0 W/m2 CLR
04:40 -16.2 °C -17.1 °C 34635.4 hPa Calm     89 % 0 mm 0.0 W/m2 CLR
04:45 -16.1 °C -17 °C 34635.4 hPa Calm     89 % 0 mm 0.0 W/m2 CLR
04:50 -16.1 °C -16.9 °C 34635.4 hPa Calm     89 % 0 mm 0.0 W/m2 CLR
04:55 -16 °C -16.9 °C 34635.4 hPa Calm     89 % 0 mm 0.0 W/m2 CLR
05:00 -16.1 °C -17.1 °C 34635.4 hPa Calm     88 % 0 mm 0.0 W/m2 CLR
05:05 -16.1 °C -17 °C 34635.4 hPa Calm     89 % 0 mm 0.0 W/m2 CLR
05:10 -16.1 °C -17 °C 34635.4 hPa Calm     89 % 0 mm 0.0 W/m2 CLR
05:15 -16.1 °C -16.9 °C 34635.4 hPa Calm     89 % 0 mm 0.0 W/m2 CLR
05:21 -16 °C -16.9 °C 34635.4 hPa Calm     89 % 0 mm 0.0 W/m2 CLR
05:26 -16.1 °C -17.1 °C 34635.4 hPa Calm     88 % 0 mm 0.0 W/m2 CLR
05:31 -16.1 °C -17 °C 34645.6 hPa Calm     89 % 0 mm 0.0 W/m2 CLR
05:36 -16.2 °C -17.1 °C 34645.6 hPa Calm     89 % 0 mm 0.0 W/m2 CLR
05:41 -16.2 °C -17.1 °C 34645.6 hPa Calm     89 % 0 mm 0.0 W/m2 CLR
05:46 -16.3 °C -17.2 °C 34645.6 hPa Calm     89 % 0 mm 0.0 W/m2 CLR
05:51 -16.3 °C -17.2 °C 34645.6 hPa Calm     89 % 0 mm 0.0 W/m2 CLR
05:56 -16.3 °C -17.2 °C 34645.6 hPa Calm     89 % 0 mm 0.0 W/m2 CLR
06:01 -16.3 °C -17.2 °C 34645.6 hPa Calm     89 % 0 mm 0.0 W/m2 CLR
06:06 -16.3 °C -17.2 °C 34645.6 hPa Calm     89 % 0 mm 0.0 W/m2 CLR
06:11 -16.3 °C -17.2 °C 34645.6 hPa Calm     89 % 0 mm 0.0 W/m2 CLR
06:16 -16.3 °C -17.2 °C 34645.6 hPa Calm     89 % 0 mm 0.0 W/m2 CLR
06:21 -16.4 °C -17.3 °C 34645.6 hPa Calm     89 % 0 mm 0.0 W/m2 CLR
06:26 -16.4 °C -17.3 °C 34659.1 hPa Calm     89 % 0 mm 0.0 W/m2 CLR
06:31 -16.4 °C -17.3 °C 34659.1 hPa Calm     90 % 0 mm 0.0 W/m2 CLR
06:36 -16.4 °C -17.3 °C 34659.1 hPa Calm     89 % 0 mm 0.0 W/m2 CLR
06:41 -16.5 °C -17.4 °C 34659.1 hPa Calm     89 % 0 mm 0.0 W/m2 CLR
06:46 -16.6 °C -17.4 °C 34669.3 hPa Calm     89 % 0 mm 0.0 W/m2 CLR
06:51 -16.6 °C -17.4 °C 34669.3 hPa Calm     90 % 0 mm 0.0 W/m2 CLR
06:56 -16.6 °C -17.3 °C 34669.3 hPa Calm     90 % 0 mm 0.0 W/m2 CLR
07:01 -16.6 °C -17.3 °C 34669.3 hPa Calm     90 % 0 mm 0.0 W/m2 OVC
07:06 -16.6 °C -17.4 °C 34669.3 hPa Calm     90 % 0 mm 5.0 W/m2 OVC
07:11 -16.6 °C -17.4 °C 34682.8 hPa Calm     90 % 0 mm 9.0 W/m2 BKN
07:16 -16.6 °C -17.4 °C 34682.8 hPa Calm     90 % 0 mm 12.0 W/m2 BKN
07:21 -16.6 °C -17.4 °C 34682.8 hPa Calm     90 % 0 mm 16.0 W/m2 BKN
07:26 -16.5 °C -17.3 °C 34682.8 hPa Calm     90 % 0 mm 19.0 W/m2 BKN
07:31 -16.4 °C -17.2 °C 34693 hPa Calm     91 % 0 mm 23.0 W/m2 BKN
07:36 -16.3 °C -17.1 °C 34693 hPa Calm     91 % 0 mm 28.0 W/m2 BKN
07:41 -16.2 °C -17 °C 34693 hPa Calm     91 % 0 mm 42.0 W/m2 BKN
07:46 -16.2 °C -17 °C 34693 hPa Calm     90 % 0 mm 47.0 W/m2 SCT
07:51 -16 °C -16.8 °C 34703.1 hPa Calm     90 % 0 mm 70.0 W/m2 FEW
07:56 -15.9 °C -16.7 °C 34693 hPa Calm     90 % 0 mm 84.0 W/m2 FEW
08:01 -15.7 °C -16.6 °C 34693 hPa Calm     90 % 0 mm 97.0 W/m2 CLR
08:06 -15.6 °C -16.5 °C 34693 hPa Calm     89 % 0 mm 111.0 W/m2 CLR
08:11 -15.4 °C -16.3 °C 34693 hPa Calm     89 % 0 mm 130.0 W/m2 CLR
08:16 -15.2 °C -16.2 °C 34693 hPa Calm     88 % 0 mm 146.0 W/m2 CLR
08:21 -14.9 °C -16.1 °C 34682.8 hPa Calm     87 % 0 mm 162.0 W/m2 CLR
08:26 -14.8 °C -15.9 °C 34693 hPa Calm     86 % 0 mm 179.0 W/m2 CLR
08:31 -14.5 °C -15.8 °C 34693 hPa Calm     85 % 0 mm 197.0 W/m2 CLR
08:36 -14.3 °C -15.8 °C 34682.8 hPa Calm     83 % 0 mm 216.0 W/m2 CLR
08:41 -14.1 °C -15.5 °C 34682.8 hPa Calm     83 % 0 mm 227.0 W/m2 CLR
08:46 -13.8 °C -15.6 °C 34682.8 hPa Calm     80 % 0 mm 234.0 W/m2 CLR
08:51 -13.6 °C -15.7 °C 34682.8 hPa Calm     77 % 0 mm 258.0 W/m2 CLR
08:56 -13.3 °C -15.4 °C 34682.8 hPa Calm     77 % 0 mm 232.0 W/m2 CLR
09:01 -13 °C -15.3 °C 34682.8 hPa Calm     75 % 0 mm 281.0 W/m2 CLR
09:06 -12.7 °C -15.2 °C 34682.8 hPa Calm     74 % 0 mm 306.0 W/m2 CLR
09:11 -12.4 °C -14.9 °C 34682.8 hPa Calm     73 % 0 mm 322.0 W/m2 CLR
09:16 -12.1 °C -14.9 °C 34682.8 hPa Calm     70 % 0 mm 338.0 W/m2 CLR
09:21 -11.8 °C -14.8 °C 34682.8 hPa Calm     70 % 0 mm 352.0 W/m2 CLR
09:26 -11.6 °C -14.6 °C 34682.8 hPa Calm     69 % 0 mm 367.0 W/m2 CLR
09:31 -11.3 °C -14.6 °C 34682.8 hPa Calm     67 % 0 mm 381.0 W/m2 CLR
09:36 -11.1 °C -14.8 °C 34669.3 hPa Calm     64 % 0 mm 397.0 W/m2 CLR
09:41 -10.9 °C -14.1 °C 34669.3 hPa Calm     68 % 0 mm 413.0 W/m2 CLR
09:46 -10.6 °C -14.1 °C 34669.3 hPa Calm     66 % 0 mm 431.0 W/m2 CLR
09:51 -10.3 °C -13.8 °C 34669.3 hPa WNW 20.9 km/h 20.9 km/h 66 % 0 mm 443.0 W/m2 CLR
09:56 -10.2 °C -13.8 °C 34669.3 hPa West 20.9 km/h 20.9 km/h 65 % 0 mm 457.0 W/m2 CLR
10:01 -10.1 °C -13.6 °C 34659.1 hPa NW 7.7 km/h 7.7 km/h 66 % 0 mm 471.0 W/m2 CLR
10:06 -9.9 °C -13.6 °C 34659.1 hPa NW 11.9 km/h 11.9 km/h 65 % 0 mm 485.0 W/m2 CLR
10:11 -9.9 °C -13.6 °C 34659.1 hPa WNW 11.9 km/h 11.9 km/h 64 % 0 mm 497.0 W/m2 CLR
10:16 -9.8 °C -13.7 °C 34659.1 hPa West 26.9 km/h 26.9 km/h 63 % 0 mm 510.0 W/m2 CLR
10:21 -9.7 °C -13.4 °C 34659.1 hPa WNW 20.8 km/h 20.8 km/h 64 % 0 mm 522.0 W/m2 CLR
10:26 -9.6 °C -13.6 °C 34659.1 hPa NW 18.2 km/h 18.2 km/h 62 % 0 mm 538.0 W/m2 CLR
10:31 -9.6 °C -13.4 °C 34659.1 hPa NW 26.9 km/h 26.9 km/h 63 % 0 mm 548.0 W/m2 CLR
10:36 -9.6 °C -13.5 °C 34659.1 hPa NW 20.9 km/h 20.9 km/h 63 % 0 mm 559.0 W/m2 CLR
10:39 -9.6 °C -13.3 °C 34659.1 hPa NW 28.5 km/h 28.5 km/h 64 % 0 mm 566.0 W/m2 CLR
10:49 -9.7 °C -13.7 °C 34659.1 hPa NW 29.8 km/h 29.8 km/h 62 % 0 mm 587.0 W/m2 CLR
10:54 -9.7 °C -13.7 °C 34659.1 hPa WNW 17.9 km/h 17.9 km/h 62 % 0 mm 594.0 W/m2 CLR
10:59 -9.7 °C -13.5 °C 34659.1 hPa NW 15.6 km/h 15.6 km/h 63 % 0 mm 610.0 W/m2 CLR
11:04 -9.6 °C -13.6 °C 34659.1 hPa NW 23.8 km/h 23.8 km/h 62 % 0 mm 622.0 W/m2 CLR
11:09 -9.6 °C -13.4 °C 34659.1 hPa WNW 15 km/h 15 km/h 63 % 0 mm 631.0 W/m2 CLR
11:14 -9.4 °C -13.6 °C 34645.6 hPa NW 11.9 km/h 11.9 km/h 61 % 0 mm 642.0 W/m2 CLR
11:20 -9.3 °C -13.4 °C 34645.6 hPa NW 17.9 km/h 17.9 km/h 61 % 0 mm 649.0 W/m2 CLR
11:25 -9.2 °C -13.1 °C 34645.6 hPa NW 15.6 km/h 15.6 km/h 63 % 0 mm 659.0 W/m2 CLR
11:30 -9.2 °C -13.5 °C 34645.6 hPa North 15 km/h 15 km/h 60 % 0 mm 666.0 W/m2 CLR
11:35 -9.1 °C -13.3 °C 34635.4 hPa Calm     61 % 0 mm 675.0 W/m2 CLR
11:40 -8.8 °C -13.1 °C 34635.4 hPa Calm     60 % 0 mm 684.0 W/m2 CLR
11:45 -8.6 °C -13.1 °C 34625.2 hPa NNW 6 km/h   59 % 0 mm 691.0 W/m2 CLR
11:50 -8.5 °C -13.3 °C 34625.2 hPa NW 9 km/h 9 km/h 57 % 0 mm 696.0 W/m2 CLR
11:55 -8.6 °C -13 °C 34625.2 hPa Calm     59 % 0 mm 698.0 W/m2 CLR
12:00 -8.4 °C -13.3 °C 34625.2 hPa Calm     56 % 0 mm 708.0 W/m2 CLR
12:05 -8.4 °C -13.6 °C 34625.2 hPa SW 12.9 km/h 12.9 km/h 54 % 0 mm 715.0 W/m2 CLR
12:10 -8.4 °C -13.6 °C 34625.2 hPa Calm     54 % 0 mm 721.0 W/m2 CLR
12:15 -8.2 °C -13.4 °C 34611.7 hPa Calm     54 % 0 mm 729.0 W/m2 CLR
12:20 -8.1 °C -13.4 °C 34611.7 hPa Calm     53 % 0 mm 733.0 W/m2 CLR
12:25 -7.9 °C -13.3 °C 34611.7 hPa Calm     53 % 0 mm 737.0 W/m2 CLR
12:30 -7.8 °C -13.4 °C 34611.7 hPa WNW 11.9 km/h 11.9 km/h 52 % 0 mm 740.0 W/m2 CLR
12:35 -7.7 °C -13.2 °C 34601.5 hPa NW 11.9 km/h 11.9 km/h 53 % 0 mm 742.0 W/m2 CLR
12:40 -7.6 °C -13.3 °C 34601.5 hPa WNW 20.9 km/h 20.9 km/h 51 % 0 mm 742.0 W/m2 CLR
12:45 -7.4 °C -13.3 °C 34601.5 hPa WNW 11.9 km/h   50 % 0 mm 749.0 W/m2 CLR
12:50 -7.4 °C -12.8 °C 34601.5 hPa NNW 20.9 km/h 20.9 km/h 53 % 0 mm 751.0 W/m2 CLR
12:55 -7.3 °C -13.3 °C 34601.5 hPa WSW 9 km/h 9 km/h 50 % 0 mm 749.0 W/m2 CLR
13:00 -7.3 °C -13.2 °C 34601.5 hPa NNW 11.9 km/h 11.9 km/h 50 % 0 mm 749.0 W/m2 CLR
13:05 -7.2 °C -13.3 °C 34591.4 hPa NNE 3.1 km/h 3.1 km/h 49 % 0 mm 752.0 W/m2 CLR
13:10 -7.1 °C -13.5 °C 34591.4 hPa Calm     47 % 0 mm 758.0 W/m2 CLR
13:15 -6.9 °C -13.6 °C 34591.4 hPa NW 6 km/h   46 % 0 mm 756.0 W/m2 CLR
13:20 -6.9 °C -13.4 °C 34591.4 hPa NW 6 km/h   47 % 0 mm 751.0 W/m2 CLR
13:25 -6.8 °C -12.9 °C 34591.4 hPa NW 18.2 km/h 18.2 km/h 49 % 0 mm 751.0 W/m2 CLR
13:30 -6.8 °C -12.9 °C 34591.4 hPa Calm     49 % 0 mm 752.0 W/m2 CLR
13:35 -6.7 °C -13.3 °C 34577.8 hPa SW 18.2 km/h 18.2 km/h 46 % 0 mm 754.0 W/m2 CLR
13:40 -6.5 °C -13.2 °C 34577.8 hPa West 15.6 km/h 15.6 km/h 46 % 0 mm 745.0 W/m2 CLR
13:45 -6.4 °C -13.3 °C 34577.8 hPa Calm     45 % 0 mm 745.0 W/m2 CLR
13:50 -6.4 °C -13.1 °C 34567.7 hPa North 17.9 km/h 17.9 km/h 46 % 0 mm 744.0 W/m2 CLR
13:55 -6.5 °C -13.7 °C 34567.7 hPa Calm     43 % 0 mm 747.0 W/m2 CLR
14:00 -6.4 °C -13.4 °C 34567.7 hPa Calm     44 % 0 mm 754.0 W/m2 CLR
14:05 -6.4 °C -13.5 °C 34567.7 hPa North 9 km/h 9 km/h 44 % 0 mm 759.0 W/m2 CLR
14:10 -6.4 °C -13.5 °C 34567.7 hPa WNW 17.9 km/h 17.9 km/h 44 % 0 mm 561.0 W/m2 CLR
14:15 -6.5 °C -13.7 °C 34567.7 hPa West 11.9 km/h   43 % 0 mm 381.0 W/m2 CLR
14:16 -6.5 °C -13.7 °C 34567.7 hPa West 11.9 km/h   43 % 0 mm 381.0 W/m2 CLR
14:21 -6.3 °C -13.2 °C 34554.1 hPa North 17.9 km/h 17.9 km/h 45 % 0 mm 754.0 W/m2 CLR
14:26 -6.3 °C -13.4 °C 34554.1 hPa Calm     44 % 0 mm 717.0 W/m2 CLR
14:31 -6.2 °C -13.6 °C 34554.1 hPa NE 11.9 km/h 11.9 km/h 42 % 0 mm 708.0 W/m2 CLR
14:36 -6 °C -12.7 °C 34554.1 hPa NW 20.8 km/h 20.8 km/h 46 % 0 mm 696.0 W/m2 CLR
14:41 -6.1 °C -13.7 °C 34554.1 hPa WNW 17.9 km/h 17.9 km/h 41 % 0 mm 693.0 W/m2 CLR
14:46 -6.2 °C -13 °C 34554.1 hPa North 23.8 km/h 23.8 km/h 45 % 0 mm 682.0 W/m2 CLR
14:51 -6.3 °C -13.2 °C 34544 hPa North 9 km/h 9 km/h 45 % 0 mm 664.0 W/m2 CLR
14:56 -6.2 °C -12.6 °C 34544 hPa WNW 9 km/h 9 km/h 48 % 0 mm 663.0 W/m2 CLR
15:01 -6.1 °C -12.8 °C 34544 hPa NNW 15.6 km/h 15.6 km/h 46 % 0 mm 661.0 W/m2 CLR
15:06 -6.2 °C -12.9 °C 34544 hPa NW 15 km/h   46 % 0 mm 649.0 W/m2 CLR
15:11 -6.2 °C -12.9 °C 34533.8 hPa Calm     46 % 0 mm 633.0 W/m2 CLR
15:16 -6 °C -13.1 °C 34533.8 hPa WSW 9 km/h 9 km/h 44 % 0 mm 628.0 W/m2 CLR
15:21 -5.9 °C -13.2 °C 34533.8 hPa North 3.1 km/h   43 % 0 mm 605.0 W/m2 CLR
15:26 -5.9 °C -13 °C 34533.8 hPa NW 9 km/h 9 km/h 44 % 0 mm 592.0 W/m2 CLR
15:31 -5.9 °C -13.2 °C 34533.8 hPa North 10.3 km/h 10.3 km/h 43 % 0 mm 598.0 W/m2 CLR
15:36 -5.9 °C -13 °C 34533.8 hPa North 18.2 km/h 18.2 km/h 44 % 0 mm 591.0 W/m2 CLR
15:41 -5.9 °C -13.2 °C 34533.8 hPa NNW 15 km/h 15 km/h 43 % 0 mm 580.0 W/m2 CLR
15:46 -5.8 °C -12.9 °C 34533.8 hPa NNW 15 km/h 15 km/h 44 % 0 mm 568.0 W/m2 CLR
15:51 -5.7 °C -13.2 °C 34520.3 hPa North 26.9 km/h 26.9 km/h 42 % 0 mm 555.0 W/m2 CLR
15:56 -5.7 °C -13 °C 34520.3 hPa North 15 km/h 15 km/h 43 % 0 mm 540.0 W/m2 CLR
16:01 -5.7 °C -13.4 °C 34520.3 hPa WNW 15.6 km/h 15.6 km/h 41 % 0 mm 527.0 W/m2 CLR
16:06 -5.7 °C -13.4 °C 34520.3 hPa WNW 17.9 km/h 17.9 km/h 41 % 0 mm 515.0 W/m2 CLR
16:11 -5.7 °C -13.6 °C 34510.1 hPa NNW 17.9 km/h 17.9 km/h 40 % 0 mm 504.0 W/m2 CLR
16:16 -5.6 °C -12.9 °C 34510.1 hPa NW 18.2 km/h 18.2 km/h 43 % 0 mm 483.0 W/m2 CLR
16:21 -5.7 °C -13.3 °C 34510.1 hPa North 18.2 km/h 18.2 km/h 41 % 0 mm 476.0 W/m2 CLR
16:26 -5.7 °C -12.7 °C 34510.1 hPa Calm     44 % 0 mm 466.0 W/m2 CLR
16:31 -5.5 °C -13.4 °C 34510.1 hPa NW 17.9 km/h 17.9 km/h 40 % 0 mm 452.0 W/m2 CLR
16:36 -5.5 °C -12.8 °C 34510.1 hPa NW 9 km/h 9 km/h 43 % 0 mm 438.0 W/m2 CLR
16:41 -5.4 °C -12.9 °C 34510.1 hPa NNW 15.6 km/h 15.6 km/h 42 % 0 mm 418.0 W/m2 CLR
16:46 -5.5 °C -13.2 °C 34496.6 hPa Calm     41 % 0 mm 399.0 W/m2 CLR
16:51 -5.5 °C -13.4 °C 34496.6 hPa WNW 20.9 km/h 20.9 km/h 40 % 0 mm 390.0 W/m2 CLR
16:56 -5.6 °C -13.4 °C 34496.6 hPa WNW 17.9 km/h 17.9 km/h 40 % 0 mm 378.0 W/m2 CLR
17:01 -5.5 °C -13.4 °C 34496.6 hPa WNW 7.7 km/h 7.7 km/h 40 % 0 mm 373.0 W/m2 CLR
17:06 -5.4 °C -12.9 °C 34496.6 hPa NW 6 km/h 6 km/h 42 % 0 mm 360.0 W/m2 CLR
17:11 -5.4 °C -13.6 °C 34496.6 hPa West 9 km/h 9 km/h 39 % 0 mm 315.0 W/m2 CLR
17:16 -5.4 °C -13.4 °C 34496.6 hPa WNW 9 km/h 9 km/h 40 % 0 mm 285.0 W/m2 CLR
17:17 -5.4 °C -13.4 °C 34496.6 hPa WNW 9 km/h 9 km/h 40 % 0 mm 292.0 W/m2 CLR
17:22 -5.4 °C -13.2 °C 34496.6 hPa WNW 9 km/h 9 km/h 41 % 0 mm 264.0 W/m2 CLR
17:27 -5.5 °C -13 °C 34496.6 hPa NW 6 km/h 6 km/h 42 % 0 mm 251.0 W/m2 CLR
17:32 -5.6 °C -13.5 °C 34496.6 hPa NW 17.9 km/h 17.9 km/h 40 % 0 mm 223.0 W/m2 CLR
17:37 -5.7 °C -12.8 °C 34486.4 hPa WNW 11.9 km/h 11.9 km/h 44 % 0 mm 221.0 W/m2 CLR
17:42 -5.7 °C -13.2 °C 34486.4 hPa WNW 11.9 km/h 11.9 km/h 42 % 0 mm 213.0 W/m2 CLR
17:47 -5.8 °C -13.1 °C 34496.6 hPa WNW 9 km/h   43 % 0 mm 181.0 W/m2 CLR
17:52 -5.8 °C -12.7 °C 34496.6 hPa Calm   0.5 km/h 45 % 0 mm 155.0 W/m2 CLR
17:57 -5.8 °C -12.9 °C 34496.6 hPa WNW 9 km/h   44 % 0 mm 127.0 W/m2 CLR
18:02 -5.8 °C -13.3 °C 34496.6 hPa West 12.9 km/h 12.9 km/h 42 % 0 mm 121.0 W/m2 CLR
18:07 -5.9 °C -12.9 °C 34496.6 hPa WNW 12.9 km/h 12.9 km/h 44 % 0 mm 105.0 W/m2 CLR
18:12 -6 °C -13.7 °C 34496.6 hPa WNW 11.9 km/h 11.9 km/h 41 % 0 mm 93.0 W/m2 CLR
18:17 -6.1 °C -13.6 °C 34496.6 hPa WNW 11.9 km/h 11.9 km/h 42 % 0 mm 93.0 W/m2 CLR
18:22 -6.2 °C -13.4 °C 34496.6 hPa WNW 10.3 km/h 10.6 km/h 43 % 0 mm 83.0 W/m2 CLR
18:27 -6.3 °C -13.3 °C 34496.6 hPa WNW 12.9 km/h 12.9 km/h 44 % 0 mm 72.0 W/m2 FEW
18:32 -6.3 °C -13.5 °C 34496.6 hPa West 15.6 km/h 15.6 km/h 43 % 0 mm 62.0 W/m2 SCT
18:37 -6.3 °C -13.3 °C 34496.6 hPa West 11.9 km/h 11.9 km/h 44 % 0 mm 46.0 W/m2 SCT
18:42 -6.3 °C -13.2 °C 34496.6 hPa WNW 9 km/h 9 km/h 45 % 0 mm 37.0 W/m2 BKN
18:47 -6.5 °C -13.5 °C 34496.6 hPa West 12.9 km/h 12.9 km/h 44 % 0 mm 26.0 W/m2 BKN
18:52 -6.7 °C -13.5 °C 34496.6 hPa WNW 12.9 km/h 12.9 km/h 45 % 0 mm 19.0 W/m2 BKN
18:57 -6.9 °C -13.2 °C 34510.1 hPa WNW 15 km/h 15 km/h 48 % 0 mm 14.0 W/m2 BKN
19:02 -7.2 °C -13.2 °C 34510.1 hPa WNW 11.9 km/h 11.9 km/h 50 % 0 mm 9.0 W/m2 BKN
19:07 -7.4 °C -13.2 °C 34510.1 hPa WNW 10.3 km/h 10.3 km/h 51 % 0 mm 5.0 W/m2 OVC
19:12 -7.6 °C -13.3 °C 34510.1 hPa WNW 9 km/h 9 km/h 51 % 0 mm 0.0 W/m2 OVC
19:17 -7.7 °C -13.2 °C 34510.1 hPa WNW 9 km/h 9 km/h 53 % 0 mm 0.0 W/m2 OVC
19:22 -7.9 °C -13.3 °C 34510.1 hPa WNW 9 km/h 9 km/h 53 % 0 mm 0.0 W/m2 CLR
19:27 -8.1 °C -13.2 °C 34510.1 hPa Calm     55 % 0 mm 0.0 W/m2 CLR
19:32 -8.2 °C -13.2 °C 34510.1 hPa Calm     55 % 0 mm 0.0 W/m2 CLR
19:37 -8.2 °C -13.1 °C 34510.1 hPa Calm     56 % 0 mm 0.0 W/m2 CLR
19:42 -8.4 °C -13.2 °C 34510.1 hPa Calm     57 % 0 mm 0.0 W/m2 CLR
19:47 -8.7 °C -13.1 °C 34510.1 hPa Calm     59 % 0 mm 0.0 W/m2 CLR
19:52 -8.8 °C -13 °C 34510.1 hPa WSW 5.1 km/h 5.1 km/h 61 % 0 mm 0.0 W/m2 CLR
19:57 -9.1 °C -13.1 °C 34510.1 hPa WSW 9 km/h 9 km/h 62 % 0 mm 0.0 W/m2 CLR
20:03 -9.3 °C -13 °C 34510.1 hPa Calm     64 % 0 mm 0.0 W/m2 CLR
20:08 -9.4 °C -13.2 °C 34510.1 hPa Calm     64 % 0 mm 0.0 W/m2 CLR
20:13 -9.5 °C -13 °C 34510.1 hPa Calm     66 % 0 mm 0.0 W/m2 CLR
20:18 -9.7 °C -13 °C 34510.1 hPa Calm     67 % 0 mm 0.0 W/m2 CLR
20:23 -9.8 °C -13.2 °C 34520.3 hPa Calm     67 % 0 mm 0.0 W/m2 CLR
20:28 -9.9 °C -13.2 °C 34520.3 hPa Calm     68 % 0 mm 0.0 W/m2 CLR
20:33 -10.1 °C -13.2 °C 34520.3 hPa Calm     69 % 0 mm 0.0 W/m2 CLR
20:43 -10.3 °C -13.2 °C 34520.3 hPa Calm     71 % 0 mm 0.0 W/m2 CLR
20:48 -10.3 °C -13.2 °C 34520.3 hPa Calm     71 % 0 mm 0.0 W/m2 CLR
20:53 -10.4 °C -13.2 °C 34520.3 hPa Calm     72 % 0 mm 0.0 W/m2 CLR
20:58 -10.4 °C -13.2 °C 34533.8 hPa Calm     72 % 0 mm 0.0 W/m2 CLR
21:03 -10.6 °C -13.3 °C 34533.8 hPa Calm     72 % 0 mm 0.0 W/m2 CLR
21:08 -10.7 °C -13.3 °C 34533.8 hPa Calm     73 % 0 mm 0.0 W/m2 CLR
21:13 -10.8 °C -13.3 °C 34533.8 hPa Calm     74 % 0 mm 0.0 W/m2 CLR
21:18 -11 °C -13.4 °C 34533.8 hPa Calm     75 % 0 mm 0.0 W/m2 CLR
21:23 -11.2 °C -13.4 °C 34544 hPa Calm     76 % 0 mm 0.0 W/m2 CLR
21:28 -11.3 °C -13.4 °C 34544 hPa Calm     77 % 0 mm 0.0 W/m2 CLR
21:33 -11.3 °C -13.5 °C 34544 hPa Calm     77 % 0 mm 0.0 W/m2 CLR
21:38 -11.4 °C -13.5 °C 34544 hPa Calm     78 % 0 mm 0.0 W/m2 CLR
21:43 -11.6 °C -13.6 °C 34554.1 hPa Calm     78 % 0 mm 0.0 W/m2 CLR
21:48 -11.6 °C -13.6 °C 34554.1 hPa Calm     79 % 0 mm 0.0 W/m2 CLR
21:53 -11.7 °C -13.6 °C 34554.1 hPa Calm     79 % 0 mm 0.0 W/m2 CLR
21:58 -11.8 °C -13.7 °C 34554.1 hPa Calm     79 % 0 mm 0.0 W/m2 CLR
22:03 -11.8 °C -13.7 °C 34554.1 hPa Calm     80 % 0 mm 0.0 W/m2 CLR
22:08 -11.9 °C -13.8 °C 34554.1 hPa Calm     80 % 0 mm 0.0 W/m2 CLR
22:13 -12 °C -13.7 °C 34554.1 hPa Calm     81 % 0 mm 0.0 W/m2 CLR
22:18 -12.1 °C -13.8 °C 34554.1 hPa Calm     81 % 0 mm 0.0 W/m2 CLR
22:23 -12.1 °C -13.8 °C 34554.1 hPa Calm     81 % 0 mm 0.0 W/m2 CLR
22:28 -12.2 °C -13.9 °C 34554.1 hPa Calm     81 % 0 mm 0.0 W/m2 CLR
22:33 -12.2 °C -13.9 °C 34567.7 hPa Calm     81 % 0 mm 0.0 W/m2 CLR
22:38 -12.3 °C -14 °C 34567.7 hPa Calm     81 % 0 mm 0.0 W/m2 CLR
22:43 -12.4 °C -14 °C 34567.7 hPa Calm     82 % 0 mm 0.0 W/m2 CLR
22:48 -12.4 °C -14.1 °C 34567.7 hPa Calm     82 % 0 mm 0.0 W/m2 CLR
22:53 -12.4 °C -14.1 °C 34567.7 hPa Calm     81 % 0 mm 0.0 W/m2 CLR
22:58 -12.3 °C -14.1 °C 34567.7 hPa Calm     81 % 0 mm 0.0 W/m2 CLR
23:03 -12.3 °C -14.2 °C 34567.7 hPa Calm     79 % 0 mm 0.0 W/m2 CLR
23:08 -12.1 °C -14.3 °C 34567.7 hPa Calm     77 % 0 mm 0.0 W/m2 CLR
23:13 -12.1 °C -14.2 °C 34567.7 hPa Calm     77 % 0 mm 0.0 W/m2 CLR
23:18 -12.1 °C -14.2 °C 34567.7 hPa Calm     77 % 0 mm 0.0 W/m2 CLR
23:23 -12.2 °C -14.4 °C 34567.7 hPa Calm     76 % 0 mm 0.0 W/m2 CLR
23:28 -12.2 °C -14.5 °C 34567.7 hPa Calm     76 % 0 mm 0.0 W/m2 CLR
23:33 -12.3 °C -14.6 °C 34567.7 hPa Calm     75 % 0 mm 0.0 W/m2 CLR
23:38 -12.3 °C -14.7 °C 34567.7 hPa Calm     75 % 0 mm 0.0 W/m2 CLR
23:48 -12.4 °C -14.8 °C 34577.8 hPa Calm     75 % 0 mm 0.0 W/m2 CLR
23:53 -12.5 °C -14.8 °C 34577.8 hPa Calm     75 % 0 mm 0.0 W/m2 CLR
23:58 -12.6 °C -14.8 °C 34577.8 hPa Calm     76 % 0 mm 0.0 W/m2 CLR
Lo Temps de Massalio
Compliments of Weather Underground - 1.25 mb